User: anonymous   Login
Location: Newark
(52.1031°N, 9.3600°E)
Time: 21:10:10
(UTC+00:00)
Language:

DOVE 4 - Orbit

View from above orbital plane
View from above orbital plane
View from above satellite
View from above satellite

Ground track
Ground track

The orbit data is extracted from the following two-line orbital elements,

1 39430U 13066Q   19346.39109416  .00000221  00000-0  48651-4 0  9994
2 39430  97.7696 291.5085 0152321  57.3300 304.2485 14.59322062322374
Epoch (UTC): 12 December 2019 09:23:10
Eccentricity: 0.0152321
inclination: 97.7696°
perigee height: 587 km
apogee height: 803 km
right ascension of ascending node: 291.5085°
argument of perigee: 57.3300°
revolutions per day: 14.59322062
mean anomaly at epoch: 304.2485°
orbit number at epoch: 32237

The dashed part of the orbit path shows where the satellite is in the earth's shadow,  

DLR